Saguache, CO

6:15 PM MDT on March 23, 2017 (GMT -0600)
Saguache

Weather History for K04V - March, 2014

Change the Weather History Date:

Tuesday, March 4, 2014

  Actual Average (KALS) Record (KALS)
Temperature  
Mean Temperature 34 °F -  
Max Temperature 46 °F 42 °F 64 °F (2016)
Min Temperature 23 °F 14 °F -13 °F (1965)
Degree Days  
Heating Degree Days 30    
Moisture  
Dew Point 22 °F    
Average Humidity 62    
Maximum Humidity 93    
Minimum Humidity 37    
Precipitation  
Precipitation 0.00 in - - ()
Sea Level Pressure  
Sea Level Pressure 30.01 in    
Wind  
Wind Speed 10 mph (NW)    
Max Wind Speed 17 mph    
Max Gust Speed 22 mph    
Visibility 10 miles    
Events Rain    
Averages and records for this station are not official NWS values.
T = Trace of Precipitation, MM = Missing Value Source: NWS Daily Summary

Daily Weather History Graph

Daily Weather History Graph

Search for Another Location

Airport or City:

Trip Planner

Search our weather history database for the weather conditions in past years. The results will help you decide how hot, cold, wet, or windy it might be!

Date:

Astronomy

Mar. 04, 2014 Rise Set
Actual Time 6:32 AM MST 6:01 PM MST
Civil Twilight 6:05 AM MST 6:27 PM MST
Nautical Twilight 5:35 AM MST 6:58 PM MST
Astronomical Twilight 5:04 AM MST 7:28 PM MST
Moon 8:23 AM MST (3/4) 10:06 PM MST (3/4)
Length of Visible Light 12h 21m
Length of Day
11h 29m
Waxing Crescent, 15% of the Moon is Illuminated
Mar 4
Waxing Crescent
Mar 8
First Quarter
Mar 16
Full
Mar 23
Last Quarter
Mar 30
New

Hourly Weather History & Observations

Time (MST) Temp. Windchill Dew Point Humidity Pressure Visibility Wind Dir Wind Speed Gust Speed Precip Events Conditions
12:11 AM 26.6 °F 16.2 °F 19.4 °F 74% 30.10 in 10.0 mi NNW 11.5 mph - N/A   Clear
12:32 AM 26.6 °F 16.8 °F 19.4 °F 74% 30.12 in 10.0 mi NNW 10.4 mph - N/A   Clear
12:52 AM 26.6 °F 17.5 °F 19.4 °F 74% 30.11 in 10.0 mi North 9.2 mph - N/A   Clear
1:12 AM 26.6 °F 18.2 °F 19.4 °F 74% 30.10 in 10.0 mi NNW 8.1 mph - N/A   Clear
1:32 AM 26.6 °F 16.8 °F 19.4 °F 74% 30.10 in 10.0 mi NNW 10.4 mph - N/A   Clear
1:52 AM 24.8 °F 16.1 °F 19.4 °F 80% 30.09 in 10.0 mi North 8.1 mph - N/A   Clear
2:12 AM 24.8 °F 14.6 °F 19.4 °F 80% 30.09 in 10.0 mi NNW 10.4 mph - N/A   Clear
2:32 AM 26.6 °F 16.2 °F 19.4 °F 74% 30.09 in 10.0 mi NNW 11.5 mph - N/A   Clear
2:52 AM 26.6 °F 16.8 °F 17.6 °F 69% 30.09 in 10.0 mi NNW 10.4 mph - N/A   Clear
3:12 AM 24.8 °F 14.6 °F 17.6 °F 74% 30.09 in 10.0 mi NNW 10.4 mph - N/A   Clear
3:32 AM 24.8 °F 14.0 °F 17.6 °F 74% 30.09 in 10.0 mi NNW 11.5 mph - N/A   Clear
3:52 AM 24.8 °F 12.9 °F 17.6 °F 74% 30.08 in 10.0 mi NNW 13.8 mph - N/A   Clear
4:12 AM 24.8 °F 13.4 °F 17.6 °F 74% 30.08 in 10.0 mi NNW 12.7 mph - N/A   Clear
4:32 AM 24.8 °F 14.0 °F 17.6 °F 74% 30.08 in 10.0 mi NNW 11.5 mph - N/A   Clear
4:52 AM 24.8 °F 12.9 °F 17.6 °F 74% 30.09 in 10.0 mi NNW 13.8 mph - N/A   Clear
5:12 AM 24.8 °F 13.4 °F 17.6 °F 74% 30.08 in 10.0 mi NNW 12.7 mph - N/A   Clear
5:32 AM 24.8 °F 14.6 °F 17.6 °F 74% 30.09 in 10.0 mi NNW 10.4 mph - N/A   Clear
5:52 AM 24.8 °F 12.4 °F 17.6 °F 74% 30.09 in 10.0 mi NW 15.0 mph - N/A   Clear
6:12 AM 24.8 °F 13.4 °F 15.8 °F 69% 30.08 in 10.0 mi NNW 12.7 mph - N/A   Clear
6:32 AM 23.0 °F 10.6 °F 15.8 °F 74% 30.09 in 10.0 mi NNW 13.8 mph - N/A   Clear
6:52 AM 23.0 °F 13.9 °F 15.8 °F 74% 30.09 in 10.0 mi NW 8.1 mph - N/A   Clear
7:12 AM 23.0 °F 13.9 °F 15.8 °F 74% 30.09 in 10.0 mi NNW 8.1 mph - N/A   Clear
7:32 AM 26.6 °F 16.8 °F 17.6 °F 69% 30.08 in 10.0 mi NNW 10.4 mph - N/A   Clear
7:52 AM 30.2 °F 20.2 °F 17.6 °F 60% 30.08 in 10.0 mi NNW 12.7 mph - N/A   Clear
8:12 AM 30.2 °F 21.9 °F 19.4 °F 64% 30.07 in 10.0 mi NW 9.2 mph - N/A   Clear
8:31 AM 32.0 °F 24.8 °F 17.6 °F 55% 30.07 in 10.0 mi NW 8.1 mph - N/A   Clear
8:51 AM 33.8 °F 28.6 °F 19.4 °F 56% 30.07 in 10.0 mi NW 5.8 mph - N/A   Clear
9:12 AM 35.6 °F 32.8 °F 19.4 °F 52% 30.07 in 10.0 mi East 3.5 mph - N/A   Clear
9:32 AM 35.6 °F 31.7 °F 21.2 °F 56% 30.06 in 10.0 mi ESE 4.6 mph - N/A   Clear
9:51 AM 37.4 °F 32.8 °F 21.2 °F 52% 30.05 in 10.0 mi SE 5.8 mph - N/A   Clear
10:12 AM 37.4 °F 31.4 °F 19.4 °F 48% 30.04 in 10.0 mi SSE 8.1 mph - N/A   Clear
10:32 AM 37.4 °F 32.1 °F 19.4 °F 48% 30.04 in 10.0 mi SSE 6.9 mph - N/A   Clear
10:52 AM 39.2 °F 35.9 °F 21.2 °F 49% 30.03 in 10.0 mi SSW 4.6 mph - N/A   Clear
11:12 AM 41.0 °F - 21.2 °F 45% 30.03 in 10.0 mi Calm Calm - N/A   Clear
11:32 AM 41.0 °F 38.0 °F 21.2 °F 45% 30.02 in 10.0 mi South 4.6 mph - N/A   Clear
11:52 AM 41.0 °F 35.2 °F 21.2 °F 45% 30.00 in 10.0 mi SSE 9.2 mph - N/A   Clear
12:12 PM 42.8 °F 38.6 °F 21.2 °F 42% 30.00 in 10.0 mi SE 6.9 mph - N/A   Clear
12:32 PM 41.0 °F 35.8 °F 21.2 °F 45% 29.98 in 10.0 mi SE 8.1 mph - N/A   Clear
12:52 PM 42.8 °F 39.3 °F 21.2 °F 42% 29.97 in 10.0 mi South 5.8 mph - N/A   Clear
1:12 PM 42.8 °F 38.0 °F 21.2 °F 42% 29.96 in 10.0 mi SSE 8.1 mph - N/A   Clear
1:32 PM 44.6 °F 40.7 °F 21.2 °F 39% 29.95 in 10.0 mi SSE 6.9 mph - N/A   Clear
1:52 PM 42.8 °F 38.6 °F 21.2 °F 42% 29.95 in 10.0 mi South 6.9 mph - N/A   Clear
2:10 PM 44.6 °F 40.7 °F 21.2 °F 39% 29.94 in 10.0 mi SSE 6.9 mph - N/A   Clear
2:32 PM 44.6 °F 41.4 °F 21.2 °F 39% 29.93 in 10.0 mi SSE 5.8 mph - N/A   Clear
2:52 PM 44.6 °F 40.7 °F 21.2 °F 39% 29.93 in 10.0 mi South 6.9 mph - N/A   Clear
3:12 PM 46.4 °F 42.4 °F 21.2 °F 37% 29.92 in 10.0 mi South 8.1 mph - N/A   Clear
3:32 PM 46.4 °F 44.3 °F 21.2 °F 37% 29.91 in 10.0 mi SSE 4.6 mph - N/A   Clear
3:52 PM 44.6 °F 43.1 °F 21.2 °F 39% 29.91 in 10.0 mi SE 3.5 mph - N/A   Clear
4:12 PM 44.6 °F 40.7 °F 21.2 °F 39% 29.91 in 10.0 mi SSE 6.9 mph - N/A   Scattered Clouds
4:32 PM 44.6 °F 40.7 °F 23.0 °F 43% 29.91 in 10.0 mi South 6.9 mph - N/A   Scattered Clouds
4:52 PM 42.8 °F 41.1 °F 23.0 °F 46% 29.91 in 10.0 mi South 3.5 mph - N/A   Scattered Clouds
5:12 PM 42.8 °F - 23.0 °F 46% 29.91 in 10.0 mi Calm Calm - N/A   Overcast
5:32 PM 42.8 °F - 23.0 °F 46% 29.91 in 10.0 mi Calm Calm - N/A   Overcast
5:51 PM 42.8 °F - 23.0 °F 46% 29.91 in 10.0 mi Calm Calm - N/A   Overcast
6:12 PM 42.8 °F - 24.8 °F 49% 29.92 in 10.0 mi Calm Calm - N/A   Overcast
6:32 PM 41.0 °F 35.2 °F 24.8 °F 53% 29.93 in 10.0 mi North 9.2 mph - N/A   Overcast
6:52 PM 41.0 °F 35.2 °F 24.8 °F 53% 29.94 in 10.0 mi NW 9.2 mph - N/A   Overcast
7:12 PM 39.2 °F 31.6 °F 26.6 °F 61% 29.94 in 10.0 mi NW 12.7 mph - N/A   Overcast
7:32 PM 39.2 °F 32.5 °F 26.6 °F 61% 29.95 in 10.0 mi NW 10.4 mph - N/A   Overcast
7:52 PM 37.4 °F 28.2 °F 26.6 °F 65% 29.95 in 10.0 mi WNW 16.1 mph - N/A   Scattered Clouds
8:12 PM 37.4 °F 28.9 °F 26.6 °F 65% 29.95 in 10.0 mi NW 13.8 mph - N/A   Scattered Clouds
8:32 PM 35.6 °F 26.6 °F 26.6 °F 70% 29.96 in 10.0 mi NW 13.8 mph - N/A   Scattered Clouds
8:50 PM 37.4 °F 28.2 °F 26.6 °F 65% 29.97 in 10.0 mi NW 16.1 mph 19.6 mph N/A   Mostly Cloudy
9:12 PM 33.8 °F 23.5 °F 30.2 °F 87% 29.98 in 7.0 mi NW 16.1 mph - N/A Rain Light Rain
9:32 PM 33.8 °F 23.5 °F 32.0 °F 93% 29.98 in 4.0 mi NW 16.1 mph 21.9 mph N/A Rain Light Rain
9:52 PM 32.0 °F 21.6 °F 30.2 °F 93% 29.99 in 3.0 mi NW 15.0 mph - N/A   Overcast
10:12 PM 32.0 °F 20.8 °F 30.2 °F 93% 30.00 in 10.0 mi NW 17.3 mph - N/A   Overcast
10:31 PM 32.0 °F 21.6 °F 30.2 °F 93% 30.00 in 7.0 mi NNW 15.0 mph - N/A   Overcast
10:52 PM 33.8 °F 26.4 °F 28.4 °F 81% 30.00 in 10.0 mi NNW 9.2 mph - N/A   Overcast
11:12 PM 33.8 °F 26.4 °F 28.4 °F 81% 30.00 in 10.0 mi NNW 9.2 mph - N/A   Overcast
11:31 PM 33.8 °F 23.9 °F 28.4 °F 81% 30.01 in 10.0 mi NW 15.0 mph - N/A   Overcast
11:52 PM 33.8 °F 25.3 °F 28.4 °F 81% 30.01 in 10.0 mi NW 11.5 mph - N/A   Overcast